GOCGC EGPK-EGSS

Flight info

Callsign GOCGC
Flight time N/A
Altitude 4000
Route VFR
Aircraft DA62/L-SDFGRY/C

Departure

Time 2026-05-09 17:31
Airport Glasgow Prestwick Airport (EGPK)

Arrival

Time N/A
Airport London Stansted Airport (EGSS)
Time Latitude Longitude Altitude Speed Heading
2026-05-09 17:28 55.51327 -4.60952 39 ft 0 kts 79°
2026-05-09 17:29 55.51327 -4.60949 39 ft 2 kts 79°
2026-05-09 17:29 55.51337 -4.60846 40 ft 11 kts 81°
2026-05-09 17:29 55.51345 -4.60745 43 ft 6 kts 82°
2026-05-09 17:30 55.51332 -4.60596 44 ft 20 kts 116°
2026-05-09 17:30 55.51198 -4.60196 46 ft 65 kts 122°
2026-05-09 17:30 55.50893 -4.59325 127 ft 94 kts 118°
2026-05-09 17:30 55.50540 -4.58273 354 ft 103 kts 117°
2026-05-09 17:31 55.50099 -4.57245 676 ft 110 kts 142°
2026-05-09 17:31 55.49344 -4.57080 957 ft 118 kts 194°
2026-05-09 17:32 55.45655 -4.58467 1756 ft 142 kts 186°
2026-05-09 17:32 55.44645 -4.58600 1815 ft 153 kts 185°
2026-05-09 17:32 55.43574 -4.58713 1898 ft 157 kts 181°
2026-05-09 17:33 55.42469 -4.58779 1910 ft 160 kts 180°
2026-05-09 17:33 55.41351 -4.58803 1949 ft 161 kts 179°
2026-05-09 17:33 55.40223 -4.58811 1978 ft 166 kts 179°
2026-05-09 17:33 55.39070 -4.58825 1981 ft 165 kts 179°
2026-05-09 17:34 55.37924 -4.58829 2034 ft 162 kts 179°
2026-05-09 17:35 55.31812 -4.56003 2810 ft 153 kts 159°
2026-05-09 17:35 55.30803 -4.55385 2933 ft 154 kts 159°
2026-05-09 17:36 55.29769 -4.54750 2977 ft 162 kts 159°
2026-05-09 17:36 55.28681 -4.54072 2976 ft 168 kts 159°
2026-05-09 17:36 55.27577 -4.53376 2986 ft 169 kts 159°
2026-05-09 17:36 55.26447 -4.52685 2983 ft 174 kts 159°
2026-05-09 17:37 55.25323 -4.51891 2986 ft 175 kts 150°
2026-05-09 17:37 55.24259 -4.50809 2983 ft 178 kts 147°
2026-05-09 17:37 55.23190 -4.49695 2981 ft 179 kts 147°
2026-05-09 17:37 55.22116 -4.48570 2986 ft 180 kts 147°
2026-05-09 17:38 55.21040 -4.47434 2975 ft 180 kts 147°
2026-05-09 17:38 55.19988 -4.46328 3105 ft 172 kts 146°
2026-05-09 17:38 55.18984 -4.45291 3291 ft 164 kts 147°
2026-05-09 17:39 55.16972 -4.43239 3711 ft 170 kts 147°
2026-05-09 17:39 55.15854 -4.42540 3905 ft 176 kts 178°
2026-05-09 17:39 55.14649 -4.42796 4103 ft 177 kts 188°
2026-05-09 17:39 55.13446 -4.42683 4305 ft 174 kts 156°
2026-05-09 17:40 55.12371 -4.41739 4524 ft 174 kts 149°
2026-05-09 17:40 55.11298 -4.40740 4737 ft 176 kts 149°
2026-05-09 17:40 55.10220 -4.39727 4945 ft 176 kts 149°
2026-05-09 17:40 55.09137 -4.38712 5133 ft 176 kts 149°
2026-05-09 17:41 55.08058 -4.37691 5344 ft 177 kts 149°
2026-05-09 17:41 55.06973 -4.36653 5552 ft 178 kts 149°
2026-05-09 17:41 55.05889 -4.35616 5763 ft 177 kts 149°
2026-05-09 17:41 55.04801 -4.34579 5966 ft 179 kts 149°
2026-05-09 17:42 55.03696 -4.33572 6177 ft 180 kts 153°
2026-05-09 17:42 55.02557 -4.32657 6394 ft 180 kts 154°
2026-05-09 17:42 55.01408 -4.31744 6609 ft 183 kts 154°
2026-05-09 17:42 55.00247 -4.30818 6809 ft 184 kts 154°
2026-05-09 17:43 54.99085 -4.29881 7012 ft 185 kts 154°
2026-05-09 17:43 54.97916 -4.28941 7209 ft 185 kts 154°
2026-05-09 17:43 54.97145 -4.28312 7344 ft 185 kts 154°
2026-05-09 17:43 54.95993 -4.26224 7606 ft 184 kts 118°
2026-05-09 17:44 54.95323 -4.24326 7810 ft 185 kts 119°
2026-05-09 17:44 54.94651 -4.22420 8014 ft 185 kts 119°
2026-05-09 17:44 54.94196 -4.21127 8158 ft 186 kts 120°
2026-05-09 17:44 54.93498 -4.19259 8350 ft 188 kts 131°
2026-05-09 17:45 54.92439 -4.17919 8563 ft 189 kts 149°
2026-05-09 17:45 54.91319 -4.16715 8773 ft 189 kts 149°
2026-05-09 17:45 54.90198 -4.15512 8982 ft 190 kts 149°
2026-05-09 17:45 54.89076 -4.14286 9190 ft 191 kts 149°
2026-05-09 17:46 54.87939 -4.13034 9237 ft 197 kts 149°
2026-05-09 17:46 54.86755 -4.11747 9237 ft 203 kts 149°
2026-05-09 17:46 54.85546 -4.10439 9237 ft 206 kts 149°
2026-05-09 17:46 54.84320 -4.09120 9239 ft 208 kts 149°
2026-05-09 17:47 54.83085 -4.07790 9242 ft 210 kts 149°
2026-05-09 17:47 54.81843 -4.06457 9240 ft 210 kts 149°
2026-05-09 17:47 54.80597 -4.05109 9241 ft 212 kts 149°
2026-05-09 17:47 54.79343 -4.03735 9242 ft 214 kts 149°
2026-05-09 17:48 54.78099 -4.02380 9237 ft 215 kts 149°
2026-05-09 17:48 54.76831 -4.00985 9237 ft 217 kts 149°
2026-05-09 17:48 54.75560 -3.99595 9238 ft 216 kts 149°
2026-05-09 17:48 54.74287 -3.98208 9239 ft 216 kts 149°
2026-05-09 17:49 54.73018 -3.96840 9240 ft 214 kts 149°
2026-05-09 17:49 54.71752 -3.95478 9239 ft 215 kts 149°
2026-05-09 17:49 54.70486 -3.94109 9241 ft 214 kts 149°
2026-05-09 17:49 54.69221 -3.92751 9239 ft 215 kts 149°
2026-05-09 17:50 54.67950 -3.91361 9231 ft 217 kts 149°
2026-05-09 17:50 54.65456 -3.88385 9230 ft 219 kts 144°
2026-05-09 17:50 54.64243 -3.86801 9241 ft 219 kts 144°
2026-05-09 17:51 54.63032 -3.85217 9243 ft 218 kts 144°
2026-05-09 17:51 54.61823 -3.83652 9241 ft 217 kts 144°
2026-05-09 17:51 54.60614 -3.82084 9244 ft 217 kts 144°
2026-05-09 17:51 54.59407 -3.80542 9242 ft 216 kts 144°
2026-05-09 17:52 54.58201 -3.79002 9236 ft 216 kts 144°
2026-05-09 17:52 54.56998 -3.77445 9236 ft 217 kts 144°
2026-05-09 17:52 54.55806 -3.75901 9241 ft 217 kts 144°
2026-05-09 17:52 54.54605 -3.74345 9241 ft 215 kts 144°
2026-05-09 17:53 54.53411 -3.72784 9240 ft 215 kts 144°
2026-05-09 17:53 54.52222 -3.71220 9240 ft 215 kts 144°
2026-05-09 17:53 54.51035 -3.69665 9238 ft 215 kts 144°
2026-05-09 17:53 54.49845 -3.68104 9240 ft 214 kts 144°
2026-05-09 17:54 54.48658 -3.66565 9233 ft 215 kts 145°
2026-05-09 17:54 54.48379 -3.66197 9232 ft 215 kts 145°
2026-05-09 17:54 54.48021 -3.65721 9233 ft 216 kts 144°
2026-05-09 17:55 54.46802 -3.64098 9235 ft 217 kts 144°
2026-05-09 17:55 54.45605 -3.62513 9238 ft 216 kts 144°
2026-05-09 17:55 54.44411 -3.60954 9233 ft 215 kts 144°
2026-05-09 17:55 54.43219 -3.59400 9233 ft 215 kts 144°
2026-05-09 17:56 54.42033 -3.57853 9231 ft 214 kts 144°
2026-05-09 17:56 54.40846 -3.56303 9231 ft 214 kts 144°
2026-05-09 17:56 54.39659 -3.54745 9231 ft 215 kts 144°
2026-05-09 17:57 54.37279 -3.51623 9227 ft 215 kts 144°
2026-05-09 17:57 54.36088 -3.50079 9226 ft 214 kts 145°
2026-05-09 17:57 54.34901 -3.48543 9227 ft 213 kts 144°
2026-05-09 17:57 54.33717 -3.47009 9227 ft 213 kts 144°
2026-05-09 17:58 54.32533 -3.45465 9227 ft 214 kts 144°
2026-05-09 17:58 54.31345 -3.43916 9226 ft 214 kts 144°
2026-05-09 17:58 54.30177 -3.42399 9227 ft 213 kts 144°
2026-05-09 17:58 54.28992 -3.40877 9221 ft 212 kts 144°
2026-05-09 17:59 54.27812 -3.39365 9221 ft 212 kts 144°
2026-05-09 17:59 54.26630 -3.37853 9222 ft 212 kts 144°
2026-05-09 17:59 54.25450 -3.36333 9222 ft 213 kts 144°
2026-05-09 17:59 54.24263 -3.34803 9224 ft 213 kts 144°
2026-05-09 18:00 54.23073 -3.33272 9227 ft 214 kts 144°
2026-05-09 18:00 54.21888 -3.31736 9228 ft 214 kts 144°
2026-05-09 18:00 54.20700 -3.30207 9227 ft 213 kts 144°
2026-05-09 18:00 54.19526 -3.28705 9215 ft 212 kts 144°
2026-05-09 18:01 54.18343 -3.27190 9218 ft 213 kts 145°
2026-05-09 18:01 54.17162 -3.25655 9219 ft 214 kts 144°
2026-05-09 18:01 54.15977 -3.24119 9220 ft 213 kts 144°
2026-05-09 18:01 54.14792 -3.22609 9219 ft 212 kts 145°
2026-05-09 18:02 54.13609 -3.21091 9218 ft 213 kts 144°
2026-05-09 18:02 54.12453 -3.19508 9215 ft 214 kts 136°
2026-05-09 18:02 54.11475 -3.17601 9215 ft 213 kts 130°
2026-05-09 18:02 54.10548 -3.15623 9217 ft 214 kts 129°
2026-05-09 18:03 54.09658 -3.13601 9215 ft 213 kts 130°
2026-05-09 18:03 54.08709 -3.11691 9214 ft 211 kts 134°
2026-05-09 18:03 54.07726 -3.09838 9212 ft 211 kts 136°
2026-05-09 18:03 54.06746 -3.07941 9058 ft 217 kts 133°
2026-05-09 18:04 54.05708 -3.06060 8873 ft 218 kts 139°
2026-05-09 18:04 54.04598 -3.04282 8689 ft 219 kts 140°
2026-05-09 18:04 54.03479 -3.02500 8506 ft 222 kts 140°
2026-05-09 18:04 54.02351 -3.00704 8325 ft 222 kts 139°
2026-05-09 18:05 54.01227 -2.98951 8144 ft 221 kts 139°
2026-05-09 18:05 54.00080 -2.97206 7963 ft 221 kts 139°
2026-05-09 18:05 53.98930 -2.95490 7784 ft 219 kts 139°
2026-05-09 18:05 53.97778 -2.93793 7606 ft 220 kts 140°
2026-05-09 18:06 53.96622 -2.92102 7432 ft 219 kts 139°
2026-05-09 18:06 53.95462 -2.90428 7254 ft 217 kts 140°
2026-05-09 18:06 53.94328 -2.88778 7219 ft 211 kts 140°
2026-05-09 18:06 53.93228 -2.87173 7175 ft 208 kts 140°
2026-05-09 18:07 53.92112 -2.85603 7051 ft 209 kts 144°
2026-05-09 18:07 53.90886 -2.84286 6924 ft 209 kts 149°
2026-05-09 18:07 53.89630 -2.83022 6799 ft 210 kts 149°
2026-05-09 18:07 53.88365 -2.81763 6673 ft 211 kts 150°
2026-05-09 18:08 53.87092 -2.80513 6558 ft 212 kts 149°
2026-05-09 18:08 53.85810 -2.79271 6383 ft 214 kts 150°
2026-05-09 18:08 53.84516 -2.78024 6121 ft 213 kts 150°
2026-05-09 18:08 53.83237 -2.76792 5875 ft 211 kts 149°
2026-05-09 18:09 53.81958 -2.75575 5752 ft 211 kts 150°
2026-05-09 18:09 53.80679 -2.74354 5612 ft 211 kts 150°
2026-05-09 18:09 53.79391 -2.73140 5487 ft 213 kts 149°
2026-05-09 18:09 53.78086 -2.71934 5339 ft 215 kts 150°
2026-05-09 18:10 53.76771 -2.70722 5181 ft 215 kts 150°
2026-05-09 18:10 53.75901 -2.69915 5045 ft 216 kts 149°
2026-05-09 18:10 53.74072 -2.68460 4766 ft 219 kts 158°
2026-05-09 18:10 53.72635 -2.67613 4554 ft 218 kts 160°
2026-05-09 18:11 53.71208 -2.66787 4346 ft 217 kts 159°
2026-05-09 18:11 53.69771 -2.65985 4131 ft 218 kts 160°
2026-05-09 18:11 53.68329 -2.65204 3931 ft 217 kts 160°
2026-05-09 18:11 53.66922 -2.64418 3729 ft 213 kts 160°
2026-05-09 18:12 53.65526 -2.63626 3523 ft 210 kts 160°
2026-05-09 18:12 53.64141 -2.62858 3318 ft 209 kts 159°
2026-05-09 18:12 53.62752 -2.62123 3111 ft 208 kts 160°
2026-05-09 18:12 53.61376 -2.61386 2903 ft 207 kts 159°
2026-05-09 18:13 53.60002 -2.60687 2702 ft 207 kts 159°
2026-05-09 18:13 53.58611 -2.60059 2491 ft 206 kts 162°
2026-05-09 18:13 53.57185 -2.59719 2282 ft 208 kts 173°
2026-05-09 18:13 53.55737 -2.59635 2077 ft 207 kts 175°
2026-05-09 18:14 53.54297 -2.59556 1868 ft 206 kts 174°
2026-05-09 18:14 53.52865 -2.59506 1658 ft 206 kts 174°
2026-05-09 18:14 53.51436 -2.59476 1444 ft 205 kts 176°
2026-05-09 18:14 53.50008 -2.59404 1238 ft 205 kts 173°
2026-05-09 18:15 53.48583 -2.59273 1032 ft 205 kts 172°
2026-05-09 18:15 53.47199 -2.59154 1009 ft 197 kts 173°
2026-05-09 18:15 53.45860 -2.59039 1007 ft 190 kts 173°
2026-05-09 18:15 53.44553 -2.58933 1005 ft 186 kts 172°
2026-05-09 18:16 53.43269 -2.58864 992 ft 184 kts 173°
2026-05-09 18:16 53.41986 -2.58779 990 ft 185 kts 173°
2026-05-09 18:16 53.40697 -2.58693 987 ft 185 kts 172°
2026-05-09 18:16 53.39409 -2.58630 987 ft 185 kts 173°
2026-05-09 18:17 53.38121 -2.58572 991 ft 185 kts 173°
2026-05-09 18:17 53.36834 -2.58484 987 ft 184 kts 173°
2026-05-09 18:17 53.35555 -2.58385 994 ft 184 kts 173°
2026-05-09 18:17 53.34286 -2.58276 996 ft 181 kts 170°
2026-05-09 18:18 53.33024 -2.58109 1000 ft 183 kts 169°
2026-05-09 18:18 53.31759 -2.57951 994 ft 182 kts 171°
2026-05-09 18:18 53.30497 -2.57776 992 ft 182 kts 169°
2026-05-09 18:18 53.29234 -2.57592 1002 ft 183 kts 171°
2026-05-09 18:19 53.27961 -2.57381 998 ft 184 kts 169°
2026-05-09 18:19 53.25412 -2.56992 1000 ft 183 kts 170°
2026-05-09 18:19 53.24164 -2.56771 997 ft 182 kts 169°
2026-05-09 18:20 53.22906 -2.56590 990 ft 181 kts 170°
2026-05-09 18:20 53.21659 -2.56407 1000 ft 180 kts 168°
2026-05-09 18:20 53.20527 -2.55630 994 ft 176 kts 141°
2026-05-09 18:20 53.19508 -2.54478 991 ft 177 kts 140°
2026-05-09 18:21 53.18497 -2.53284 988 ft 178 kts 140°
2026-05-09 18:21 53.17486 -2.52087 1015 ft 177 kts 140°
2026-05-09 18:21 53.16492 -2.50912 1102 ft 173 kts 140°
2026-05-09 18:21 53.15514 -2.49786 1237 ft 169 kts 140°
2026-05-09 18:22 53.14542 -2.48701 1371 ft 167 kts 139°
2026-05-09 18:22 53.13579 -2.47646 1485 ft 165 kts 140°
2026-05-09 18:22 53.12608 -2.46574 1483 ft 169 kts 140°
2026-05-09 18:22 53.11624 -2.45470 1487 ft 172 kts 140°
2026-05-09 18:23 53.10618 -2.44352 1489 ft 175 kts 140°
2026-05-09 18:23 53.09599 -2.43213 1489 ft 178 kts 140°
2026-05-09 18:23 53.08564 -2.42071 1490 ft 179 kts 141°
2026-05-09 18:23 53.07537 -2.40914 1490 ft 178 kts 140°
2026-05-09 18:24 53.06516 -2.39745 1488 ft 178 kts 140°
2026-05-09 18:24 53.05495 -2.38574 1488 ft 178 kts 140°
2026-05-09 18:24 53.04475 -2.37393 1483 ft 179 kts 140°
2026-05-09 18:25 53.02324 -2.35345 1468 ft 185 kts 165°
2026-05-09 18:25 53.01030 -2.35102 1471 ft 189 kts 170°
2026-05-09 18:25 52.99758 -2.34908 1582 ft 183 kts 170°
2026-05-09 18:25 52.98503 -2.34717 1712 ft 179 kts 170°
2026-05-09 18:26 52.97272 -2.34524 1848 ft 176 kts 170°
2026-05-09 18:26 52.96064 -2.34335 1967 ft 174 kts 171°
2026-05-09 18:26 52.94857 -2.34033 1973 ft 177 kts 164°
2026-05-09 18:26 52.93655 -2.33519 1974 ft 180 kts 160°
2026-05-09 18:27 52.92437 -2.32957 1966 ft 182 kts 159°
2026-05-09 18:27 52.91643 -2.32466 1968 ft 181 kts 151°
2026-05-09 18:27 52.90126 -2.31328 1964 ft 180 kts 150°
2026-05-09 18:27 52.88992 -2.30459 1957 ft 180 kts 150°
2026-05-09 18:28 52.87860 -2.29568 1965 ft 180 kts 150°
2026-05-09 18:28 52.86721 -2.28685 1967 ft 182 kts 150°
2026-05-09 18:28 52.85572 -2.27796 1967 ft 182 kts 150°
2026-05-09 18:28 52.84418 -2.26903 1967 ft 183 kts 149°
2026-05-09 18:29 52.83251 -2.26051 1965 ft 185 kts 155°
2026-05-09 18:29 52.81991 -2.25701 1960 ft 187 kts 170°
2026-05-09 18:29 52.80701 -2.25486 1949 ft 185 kts 171°
2026-05-09 18:29 52.79409 -2.25453 1960 ft 187 kts 179°
2026-05-09 18:30 52.78116 -2.25606 1962 ft 187 kts 180°
2026-05-09 18:30 52.76817 -2.25756 1962 ft 187 kts 180°
2026-05-09 18:30 52.75516 -2.25878 1963 ft 187 kts 179°
2026-05-09 18:30 52.74213 -2.26009 1967 ft 188 kts 181°
2026-05-09 18:31 52.72904 -2.26105 1963 ft 189 kts 180°
2026-05-09 18:31 52.72036 -2.26049 1970 ft 188 kts 171°
2026-05-09 18:31 52.70747 -2.25679 1965 ft 188 kts 165°
2026-05-09 18:31 52.69461 -2.25272 1970 ft 188 kts 165°
2026-05-09 18:32 52.68174 -2.24860 1964 ft 189 kts 165°
2026-05-09 18:32 52.66884 -2.24464 1961 ft 187 kts 165°
2026-05-09 18:32 52.65613 -2.24090 1954 ft 185 kts 165°
2026-05-09 18:32 52.64350 -2.23724 1957 ft 184 kts 165°
2026-05-09 18:33 52.63098 -2.23343 1956 ft 183 kts 165°
2026-05-09 18:33 52.61822 -2.23122 1953 ft 190 kts 185°
2026-05-09 18:33 52.60582 -2.23915 1948 ft 193 kts 208°
2026-05-09 18:33 52.59503 -2.25217 1948 ft 192 kts 220°
2026-05-09 18:34 52.58467 -2.26612 1954 ft 193 kts 219°
2026-05-09 18:34 52.57429 -2.28018 1951 ft 193 kts 216°
2026-05-09 18:34 52.56166 -2.28681 1952 ft 192 kts 181°
2026-05-09 18:34 52.54923 -2.28159 1943 ft 182 kts 142°
2026-05-09 18:35 52.53993 -2.26807 1941 ft 177 kts 130°
2026-05-09 18:35 52.53120 -2.25395 1953 ft 176 kts 130°
2026-05-09 18:35 52.52257 -2.23999 1943 ft 176 kts 130°
2026-05-09 18:35 52.51388 -2.22590 1957 ft 175 kts 130°
2026-05-09 18:36 52.50515 -2.21174 1951 ft 177 kts 130°
2026-05-09 18:36 52.49594 -2.19793 1963 ft 183 kts 136°
2026-05-09 18:36 52.48540 -2.18595 1952 ft 186 kts 140°
2026-05-09 18:36 52.47459 -2.17415 1957 ft 187 kts 140°
2026-05-09 18:37 52.46377 -2.16244 2015 ft 184 kts 140°
2026-05-09 18:37 52.45320 -2.15102 2137 ft 179 kts 140°
2026-05-09 18:37 52.44291 -2.13982 2263 ft 176 kts 140°
2026-05-09 18:37 52.43270 -2.12897 2389 ft 173 kts 140°
2026-05-09 18:38 52.42267 -2.11845 2519 ft 170 kts 140°
2026-05-09 18:38 52.41278 -2.10810 2644 ft 167 kts 140°
2026-05-09 18:38 52.40308 -2.09778 2775 ft 166 kts 140°
2026-05-09 18:40 52.33090 -2.02122 2983 ft 180 kts 140°
2026-05-09 18:40 52.32040 -2.01005 2988 ft 180 kts 140°
2026-05-09 18:40 52.31004 -1.99857 2986 ft 179 kts 135°
2026-05-09 18:41 52.30089 -1.98502 2988 ft 177 kts 129°
2026-05-09 18:41 52.29181 -1.97139 2980 ft 176 kts 130°
2026-05-09 18:41 52.28286 -1.95791 2982 ft 174 kts 130°
2026-05-09 18:41 52.27401 -1.94442 2980 ft 174 kts 130°
2026-05-09 18:42 52.26515 -1.93099 2988 ft 174 kts 131°
2026-05-09 18:42 52.25649 -1.91700 2986 ft 176 kts 130°
2026-05-09 18:42 52.24776 -1.90291 2988 ft 177 kts 130°
2026-05-09 18:42 52.23898 -1.88873 2987 ft 177 kts 130°
2026-05-09 18:43 52.23055 -1.87410 2987 ft 175 kts 120°
2026-05-09 18:43 52.22491 -1.85678 2988 ft 173 kts 110°
2026-05-09 18:43 52.21977 -1.83891 2990 ft 175 kts 110°
2026-05-09 18:43 52.21469 -1.82089 2986 ft 175 kts 110°
2026-05-09 18:44 52.20955 -1.80296 2987 ft 174 kts 110°
2026-05-09 18:44 52.20453 -1.78505 2988 ft 174 kts 110°
2026-05-09 18:44 52.19950 -1.76714 2991 ft 173 kts 110°
2026-05-09 18:44 52.19456 -1.74966 2994 ft 172 kts 110°
2026-05-09 18:45 52.19050 -1.73139 2995 ft 171 kts 101°
2026-05-09 18:45 52.18742 -1.71273 2997 ft 170 kts 100°
2026-05-09 18:45 52.18435 -1.69409 2999 ft 170 kts 100°
2026-05-09 18:45 52.18130 -1.67539 3001 ft 171 kts 101°
2026-05-09 18:46 52.17839 -1.65649 3001 ft 172 kts 100°
2026-05-09 18:46 52.17545 -1.63770 3082 ft 167 kts 99°
2026-05-09 18:46 52.17248 -1.61989 3285 ft 159 kts 101°
2026-05-09 18:46 52.16965 -1.60282 3487 ft 154 kts 101°
2026-05-09 18:47 52.16699 -1.58613 3683 ft 151 kts 101°
2026-05-09 18:47 52.16444 -1.56979 3888 ft 147 kts 100°
2026-05-09 18:47 52.16193 -1.55363 4007 ft 150 kts 99°
2026-05-09 18:47 52.15933 -1.53683 4015 ft 159 kts 100°
2026-05-09 18:48 52.15662 -1.51876 4022 ft 165 kts 100°
2026-05-09 18:48 52.15383 -1.50072 4022 ft 168 kts 100°
2026-05-09 18:48 52.15105 -1.48214 4028 ft 170 kts 100°
2026-05-09 18:48 52.14832 -1.46338 4025 ft 171 kts 100°
2026-05-09 18:49 52.14578 -1.44450 4028 ft 170 kts 100°
2026-05-09 18:49 52.14319 -1.42556 4024 ft 171 kts 99°
2026-05-09 18:49 52.14052 -1.40673 4022 ft 170 kts 100°
2026-05-09 18:49 52.13789 -1.38798 4062 ft 168 kts 101°
2026-05-09 18:50 52.13527 -1.36940 4069 ft 169 kts 100°
2026-05-09 18:50 52.13269 -1.35062 4068 ft 171 kts 100°
2026-05-09 18:50 52.13014 -1.33177 4072 ft 170 kts 101°
2026-05-09 18:50 52.12755 -1.31285 4071 ft 171 kts 100°
2026-05-09 18:51 52.12485 -1.29408 4065 ft 170 kts 102°
2026-05-09 18:51 52.12222 -1.27524 4067 ft 171 kts 100°
2026-05-09 18:51 52.11960 -1.25632 4114 ft 170 kts 101°
2026-05-09 18:51 52.11708 -1.23776 4233 ft 166 kts 101°
2026-05-09 18:52 52.11460 -1.21963 4364 ft 163 kts 100°
2026-05-09 18:52 52.11212 -1.20157 4491 ft 163 kts 100°
2026-05-09 18:52 52.10965 -1.18367 4612 ft 161 kts 101°
2026-05-09 18:52 52.10728 -1.16587 4734 ft 161 kts 100°
2026-05-09 18:53 52.10492 -1.14810 4866 ft 161 kts 101°
2026-05-09 18:53 52.10265 -1.13025 4993 ft 161 kts 101°
2026-05-09 18:53 52.10033 -1.11221 5046 ft 166 kts 100°
2026-05-09 18:53 52.09793 -1.09349 5044 ft 172 kts 101°
2026-05-09 18:54 52.09543 -1.07430 5042 ft 174 kts 101°
2026-05-09 18:54 52.09292 -1.05487 5041 ft 176 kts 101°
2026-05-09 18:54 52.09039 -1.03520 5037 ft 178 kts 101°
2026-05-09 18:54 52.08789 -1.01538 5032 ft 179 kts 100°
2026-05-09 18:55 52.08533 -0.99559 5031 ft 179 kts 101°
2026-05-09 18:55 52.08279 -0.97607 5032 ft 178 kts 101°
2026-05-09 18:55 52.08025 -0.95651 5027 ft 176 kts 101°
2026-05-09 18:55 52.07782 -0.93706 4999 ft 176 kts 101°
2026-05-09 18:56 52.07537 -0.91764 5000 ft 175 kts 101°
2026-05-09 18:56 52.07297 -0.89828 4997 ft 175 kts 101°
2026-05-09 18:56 52.07054 -0.87888 4978 ft 175 kts 101°
2026-05-09 18:56 52.06812 -0.85959 4979 ft 174 kts 101°
2026-05-09 18:57 52.06567 -0.84022 4915 ft 177 kts 101°
2026-05-09 18:57 52.06319 -0.82033 4788 ft 182 kts 101°
2026-05-09 18:57 52.06063 -0.80001 4659 ft 185 kts 100°